Tracking 29489 objects as of 10-Sep-2024
HD Live streaming from Space Station
objects crossing your sky now

FENGYUN 1C DEB

Track FENGYUN 1C DEB now!
10-day predictions


NORAD ID: 30528
Int'l Code: 1999-025AJS
Perigee: 752.9 km
Apogee: 965.9 km
Inclination: 98.3 °
Period: 102.0 minutes
Semi major axis: 7230 km
RCS: 0.0209 m2 (small)
Launch date: May 10, 1999
Source: People's Republic of China (PRC)
Launch site: Taiyaun Space Center, China (TSC)

Note: This is SATELLITE DEBRIS
Your satellite tracking list
Your tracking list is empty




NASA's NSSDC Master Catalog

Two Line Element Set (TLE):
1 30528U 99025AJS 24253.69736887  .00002496  00000-0  12476-2 0  9996
2 30528  98.2898 151.9954 0147277 109.9686 306.2126 14.12077786906553
Source of the keplerian elements: AFSPC